User: anonymous   Login
Location: Unspecified
(0.0000°N, 0.0000°E)
Time: 22:06:41
(UTC+00:00)
Language:

Aussat K1 - Orbit

View from above orbital plane
View from above orbital plane
View from above satellite
View from above satellite

Ground track
Ground track

The orbit data is extracted from the following two-line orbital elements,

1 15993U 85076B   16040.64744418  .00000032  00000-0  00000+0 0  9996
2 15993  15.1963  12.5778 0005097 256.9137 342.7993  0.99757042 81861
Epoch (UTC): 09 February 2016 15:32:19
Eccentricity: 0.0005097
inclination: 15.1963°
perigee height: 35909 km
apogee height: 35953 km
right ascension of ascending node: 12.5778°
argument of perigee: 256.9137°
revolutions per day: 0.99757042
mean anomaly at epoch: 342.7993°
orbit number at epoch: 8186

The dashed part of the orbit path shows where the satellite is in the earth's shadow,  

DLR